Weather History for Marrakech, Morocco

Change the Weather History Date:

Saturday, February 15, 2014

  Actual Average Record
Temperature  
Mean Temperature 57 °F -  
Max Temperature 68 °F 70 °F 84 °F (2007)
Min Temperature 46 °F 48 °F 37 °F (1999)
Degree Days  
Heating Degree Days 8    
Growing Degree Days 7 (Base 50)    
Moisture  
Dew Point 46 °F    
Average Humidity 67    
Maximum Humidity 94    
Minimum Humidity 33    
Precipitation  
Precipitation 0.08 in 0.05 in - ()
Sea Level Pressure  
Sea Level Pressure 29.92 in    
Wind  
Wind Speed 5 mph ()    
Max Wind Speed 14 mph    
Max Gust Speed -    
Visibility 5.8 miles    
Events Rain    
Averages and records for this station are not official NWS values.
T = Trace of Precipitation, MM = Missing Value Source: Averaged Metar Reports

Daily Weather History Graph

Daily Weather History Graph

Search for Another Location

Airport:

Trip Planner

Search our weather history database for the weather conditions in past years. The results will help you decide how hot, cold, wet, or windy it might be!

Date:

Astronomy

Feb. 15, 2014 Rise Set
Actual Time 7:14 AM WET 6:18 PM WET
Civil Twilight 6:49 AM WET 6:43 PM WET
Nautical Twilight 6:20 AM WET 7:12 PM WET
Astronomical Twilight 5:52 AM WET 7:40 PM WET
Moon 7:00 PM WET (2/15) 7:10 AM WET (2/15)
Length of Visible Light 11h 54m
Length of Day
11h 04m
Full, 100% of the Moon is Illuminated
Feb 15
Full
Feb 22
Last Quarter
Mar 1
New
Mar 8
First Quarter
Mar 16
Full

Hourly Weather History & Observations

Time (WET) Temp. Windchill Dew Point Humidity Pressure Visibility Wind Dir Wind Speed Gust Speed Precip Events Conditions
12:00 AM 56 °F - 39 °F 41% 29.99 in 6 mi ENE 4.6 mph - -  
12:00 AM 57.2 °F - 39.2 °F 51% 30.01 in - ENE 5.8 mph - N/A   Clear
12:30 AM 57.2 °F - 37.4 °F 48% 30.01 in - WNW 4.6 mph - N/A   Clear
1:00 AM 55.4 °F - 39.2 °F 54% 29.98 in - Variable 2.3 mph - N/A   Clear
1:30 AM 55.4 °F - 37.4 °F 51% 29.98 in - WSW 5.8 mph - N/A   Clear
2:00 AM 53.6 °F - 37.4 °F 54% 29.98 in - Variable 2.3 mph - N/A   Clear
2:30 AM 51.8 °F - 39.2 °F 62% 29.95 in - Variable 2.3 mph - N/A   Clear
3:00 AM 50 °F - 39 °F 55% 29.97 in 6 mi WSW 3.5 mph - -  
3:00 AM 50.0 °F - 39.2 °F 66% 29.95 in - WSW 3.5 mph - N/A   Clear
3:30 AM 48.2 °F - 39.2 °F 71% 29.95 in - SW 3.5 mph - N/A   Clear
4:00 AM 50.0 °F - 39.2 °F 66% 29.95 in 6.2 mi WSW 3.5 mph - N/A   Unknown
4:30 AM 48.2 °F - 39.2 °F 71% 29.95 in - WSW 3.5 mph - N/A   Clear
5:30 AM 48.2 °F - 42.8 °F 82% 29.92 in - SE 2.3 mph - N/A   Clear
6:00 AM 47 °F - 41 °F 71% 29.95 in 6 mi Calm Calm - -  
6:00 AM 46.4 °F - 41.0 °F 81% 29.92 in - Calm Calm - N/A   Clear
6:30 AM 46.4 °F - 41.0 °F 81% 29.92 in - Variable 1.2 mph - N/A   Clear
7:00 AM 46.4 °F 45.2 °F 41.0 °F 81% 29.92 in 6.2 mi ENE 3.5 mph - N/A   Partly Cloudy
7:30 AM 50.0 °F - 42.8 °F 76% 29.92 in 5.6 mi NNW 5.8 mph - N/A   Partly Cloudy
8:00 AM 50.0 °F - 42.8 °F 76% 29.92 in 4.3 mi Calm Calm - N/A   Partly Cloudy
8:08 AM 50.0 °F - 44.6 °F 82% 29.92 in 4.3 mi Calm Calm - N/A   Scattered Clouds
8:30 AM 50.0 °F - 46.4 °F 87% 29.95 in 4.3 mi Calm Calm - N/A   Scattered Clouds
9:00 AM 52 °F - 45 °F 71% 29.97 in 6 mi SSW 6.9 mph - -   Scattered Clouds
9:00 AM 51.8 °F - 44.6 °F 76% 29.95 in 5.6 mi SSW 6.9 mph - N/A   Scattered Clouds
9:30 AM 53.6 °F - 46.4 °F 77% 29.95 in 6.2 mi South 9.2 mph - N/A   Scattered Clouds
10:00 AM 55.4 °F - 48.2 °F 77% 29.95 in 6.2 mi SSE 8.1 mph - N/A   Scattered Clouds
10:30 AM 57.2 °F - 48.2 °F 72% 29.95 in 6.2 mi SE 4.6 mph - N/A   Scattered Clouds
11:00 AM 59.0 °F - 48.2 °F 67% 29.95 in 6.2 mi SE 5.8 mph - N/A   Scattered Clouds
11:30 AM 60.8 °F - 50.0 °F 68% 29.95 in 6.2 mi ESE 5.8 mph - N/A   Scattered Clouds
12:00 PM 62 °F - 47 °F 49% 29.91 in 6 mi East 5.8 mph - -   Partly Cloudy
12:00 PM 62.6 °F - 48.2 °F 59% 29.92 in 6.2 mi East 4.6 mph - N/A   Scattered Clouds
12:30 PM 64.4 °F - 50.0 °F 59% 29.92 in 6.2 mi East 3.5 mph - N/A   Scattered Clouds
1:00 PM 64.4 °F - 48.2 °F 56% 29.89 in 6.2 mi Variable 3.5 mph - N/A   Scattered Clouds
1:30 PM 66.2 °F - 44.6 °F 46% 29.86 in 6.2 mi East 6.9 mph - N/A   Scattered Clouds
2:00 PM 66.2 °F - 46.4 °F 49% 29.86 in 6.2 mi Variable 2.3 mph - N/A   Scattered Clouds
2:30 PM 66.2 °F - 44.6 °F 46% 29.86 in 6.2 mi North 6.9 mph - N/A   Scattered Clouds
3:00 PM 68 °F - 45 °F 33% 29.80 in 6 mi NW 4.6 mph - -   Partly Cloudy
3:00 PM 68.0 °F - 46.4 °F 46% 29.83 in 6.2 mi Variable 4.6 mph - N/A   Scattered Clouds
3:30 PM 68.0 °F - 44.6 °F 43% 29.83 in 6.2 mi NNW 8.1 mph - N/A   Scattered Clouds
4:00 PM 68.0 °F - 46.4 °F 46% 29.83 in 6.2 mi WNW 9.2 mph - N/A   Scattered Clouds
4:30 PM 66.2 °F - 48.2 °F 52% 29.86 in 6.2 mi WNW 11.5 mph - N/A   Scattered Clouds
5:00 PM 64.4 °F - 51.8 °F 64% 29.86 in 6.2 mi WNW 13.8 mph - N/A   Mostly Cloudy
5:30 PM 62.6 °F - 50.0 °F 63% 29.89 in 6.2 mi NW 13.8 mph - N/A   Mostly Cloudy
5:47 PM 61 °F - 51 °F 60% 29.86 in 6 mi WNW 13.8 mph - -   Mostly Cloudy
6:00 PM 60.8 °F - 50.0 °F 68% 29.89 in 6.2 mi WNW 13.8 mph - N/A   Mostly Cloudy
6:30 PM 60.8 °F - 51.8 °F 72% 29.89 in 6.2 mi NW 9.2 mph - N/A   Mostly Cloudy
7:00 PM 59.0 °F - 51.8 °F 77% 29.92 in 6.2 mi NW 10.4 mph - N/A Rain Light Rain
7:30 PM 59.0 °F - 53.6 °F 82% 29.92 in 6.2 mi NW 9.2 mph - N/A Rain Light Rain
8:00 PM 57.2 °F - 53.6 °F 88% 29.95 in 5.0 mi NNW 5.8 mph - N/A Rain Light Rain
8:30 PM 57.2 °F - 53.6 °F 88% 29.95 in 5.0 mi North 5.8 mph - N/A Rain Light Rain
9:00 PM 55.4 °F - 53.6 °F 94% 29.95 in 5.0 mi North 11.5 mph - N/A Rain Light Rain
9:12 PM 56 °F - 53 °F 86% 29.94 in 5 mi North 11.5 mph - - Rain Light Rain
9:30 PM 55.4 °F - 53.6 °F 94% 29.95 in 5.0 mi North 11.5 mph - N/A Rain Light Rain
10:30 PM 55.4 °F - 53.6 °F 94% 29.95 in 5.0 mi North 8.1 mph - N/A Rain Light Rain
11:00 PM 55.4 °F - 51.8 °F 88% 29.95 in 5.0 mi NNE 9.2 mph - N/A Rain Light Rain
11:30 PM 53.6 °F - 51.8 °F 94% 29.95 in 5.0 mi NNE 12.7 mph - N/A Rain Light Rain